Location: Mason Neck State Park
(38.6428°N, 77.1981°W)
Time: 08:59:50
(UTC-04:00)

Daily predictions for brighter satellites

Satellite Brightness Start Highest point End
(mag) Time Altitude Azimuth Time Altitude Azimuth Time Altitude Azimuth
Helios 1B rocket 2.8 20:48:31 10° NNE 20:52:29 43° E 20:56:25 10° S
PSLV R/B 3.5 20:53:37 10° WNW 20:56:42 58° N 20:59:47 10° E
USA 186 1.8 20:53:32 10° S 20:56:44 80° WSW 20:59:52 10° NNW
Cosmos 2369 Rocket 4.5 20:56:08 10° NW 21:00:28 23° W 21:04:48 10° SSW
Cosmos 405 4.5 21:00:57 10° NNE 21:03:44 21° ENE 21:06:25 11° SE
Cosmos 1025 Rocket 4.1 21:00:20 10° SE 21:03:48 25° E 21:07:18 10° NE
Cosmos 1544 Rocket 4.3 20:59:42 10° NNW 21:03:56 55° W 21:08:09 10° S
Cosmos 1943 Rocket 3.4 20:59:04 10° NW 21:04:16 40° WSW 21:09:24 10° S
Cosmos 2074 Rocket 4.2 20:59:14 10° N 21:05:25 58° E 21:11:34 10° SSE
Spot 1 4.2 21:01:52 10° SSE 21:06:20 62° ENE 21:10:35 10° N
Aureole 1 Rocket 2.3 21:05:13 10° S 21:08:31 52° ESE 21:11:28 10° NNE
Cosmos 2184 Rocket 4.2 21:02:25 10° N 21:08:42 60° E 21:14:52 10° SSE
Cosmos 405 Rocket 2.7 21:11:17 10° S 21:15:02 83° W 21:18:53 10° N
DEBRIS 3.7 21:14:55 10° WSW 21:17:59 77° NNW 21:27:34 10° NE
Meteor 1-19 Rocket 4.3 21:13:41 10° S 21:19:30 90° ESE 21:25:16 10° N
ARGOS 4.4 21:17:01 12° ESE 21:20:58 25° ENE 21:25:18 10° NNE
Okean 2 4.3 21:17:57 12° SSE 21:21:11 29° E 21:24:43 10° NNE
Meteor 1-23 Rocket 4.4 21:18:03 10° SSE 21:23:25 51° E 21:28:50 10° NNE
Cosmos 1441 Rocket 3.1 21:20:12 10° S 21:23:52 62° E 21:27:35 10° NNE
Tiangong 2 1.7 21:21:05 10° W 21:24:13 58° NNW 21:27:22 10° ENE
ERS-1 Rocket 3.4 21:21:27 13° SE 21:25:43 45° ENE 21:30:30 10° N
Resurs 01 Rocket 3.7 21:23:30 10° SSW 21:27:12 26° W 21:30:55 10° NW
CENTAUR R/B 3.4 21:21:21 10° NW 21:29:19 69° WSW 21:37:39 10° SSE
SPOT 5 3.9 21:30:14 15° ESE 21:32:40 24° ENE 21:36:10 10° NNE
Meteor 1-29 3.4 21:31:54 10° N 21:35:13 61° WNW 21:38:32 10° SSW
Nadezhda 1 Rocket 4.0 21:29:49 10° S 21:36:09 81° E 21:42:35 10° N
MOS 1-B Rocket 4.3 21:35:57 16° SE 21:40:20 50° ENE 21:46:31 10° N
COSMOS 2406 4.3 21:36:23 10° SW 21:41:54 48° WNW 21:47:26 10° NNE
Meteor 1-15 Rocket 4.3 21:37:47 10° N 21:43:17 58° ENE 21:47:17 19° SSE
Cosmos 2082 Rocket 3.2 21:41:51 18° SE 21:44:32 26° ESE 21:49:10 10° NE
ASTRO E2 4.5 21:46:17 10° WSW 21:48:58 17° SSW 21:49:55 16° S
Cosmos 1743 4.4 21:46:45 10° NNW 21:50:14 31° W 21:53:42 10° SSW
CZ-4B DEB 4.2 21:48:37 10° SSW 21:51:17 31° W 21:54:00 10° NNW
Cosmos 2154 Rocket 4.0 21:46:28 10° N 21:52:50 72° E 21:57:43 18° SSE
CRYOSAT 2 4.3 21:48:52 13° S 21:53:11 88° W 21:58:03 10° N
Cosmos 1238 Rocket 4.3 21:48:48 10° S 21:55:32 77° W 22:02:04 10° N
ISS -1.5 21:55:59 10° W 21:58:51 27° NNW 22:01:43 10° NNE
ASTEX 1 3.6 21:55:06 12° S 21:59:40 69° W 22:04:33 10° N
H-2A R/B 2.8 21:59:49 24° ESE 22:01:57 34° ENE 22:06:27 10° N
Cosmos 1624 Rocket 4.0 21:57:21 10° NNW 22:02:39 73° ENE 22:05:37 27° SSE
OAO 2 Rocket 3.4 21:58:02 10° W 22:02:51 53° S 22:05:08 29° SE
Cosmos 2369 4.2 22:00:22 10° NNW 22:05:55 49° ENE 22:08:44 27° ESE
Cosmos 1697 Rocket 4.1 22:01:59 10° N 22:06:36 25° ENE 22:09:12 18° E
Cosmos 967 Rocket 4.4 22:01:11 10° SSW 22:07:26 87° ESE 22:13:45 10° NNE
Cosmos 2228 3.7 22:04:25 10° N 22:08:24 36° ENE 22:09:27 31° ESE
YAOGAN 6 3.9 22:06:35 15° SSW 22:09:02 34° W 22:12:16 10° NNW
Cosmos 921 Rocket 3.3 22:06:41 10° N 22:11:04 53° ENE 22:12:34 36° SE
SL-08 RB Rocket 3.8 22:12:26 35° SE 22:14:05 57° ENE 22:18:29 10° N
Cosmos 1656 4.4 22:09:15 10° N 22:14:23 39° ENE 22:16:38 27° ESE
Meteor 1-4 Rocket 4.1 22:11:43 10° NNE 22:14:27 21° ENE 22:14:27 21° ENE
Cosmos 1892 Rocket 3.5 22:15:22 26° S 22:17:50 85° E 22:22:17 10° N
Cosmos 1833 Rocket 2.8 22:19:02 28° SSE 22:21:42 51° ESE 22:27:09 10° NNE
Cosmos 2056 Rocket 3.4 22:16:46 10° NNW 22:21:56 80° WSW 22:24:17 33° S
Cosmos 1437 Rocket 3.2 22:19:57 10° NNW 22:23:44 56° W 22:25:17 32° SSW
Cosmos 1602 Rocket 4.5 22:23:56 30° E 22:23:56 30° E 22:27:40 10° NNE
CZ-3B Rocket 4.4 22:19:43 10° SSW 22:39:10 - ESE 22:21:32 16° S
Cosmos 2341 Rocket 4.0 22:19:15 10° N 22:25:39 87° W 22:29:28 26° S
MetOp-A 4.4 22:23:25 24° S 22:26:39 63° W 22:31:58 10° NNW
Cosmos 1606 Rocket 4.0 22:27:11 10° NNW 22:31:24 56° W 22:33:15 31° SSW
PSLV R/B 4.1 22:30:44 10° W 22:32:59 36° WSW 22:32:59 36° WSW
Cosmos 839 Rocket 4.4 22:29:08 10° NNW 22:35:49 89° WSW 22:39:48 33° SSE
Cosmos 1066 Rocket 4.1 22:34:16 37° SSE 22:36:27 69° E 22:42:02 10° NNE
Cosmos 2218 Rocket 4.1 22:31:03 10° N 22:37:08 58° E 22:39:18 39° SE
Cosmos 1726 Rocket 4.1 22:36:55 10° NNW 22:41:08 53° W 22:42:37 35° SSW
USA 245 4.1 22:42:20 29° WNW 22:42:20 29° WNW 22:43:53 10° NNW
COSMOS 2487 3.3 22:43:44 34° WSW 22:44:54 49° WNW 22:48:23 10° N
CZ-3A R/B 2.9 22:46:53 10° W 22:48:50 18° WNW 22:48:50 18° WNW
CARTOSAT-1 3.8 22:50:14 50° E 22:50:26 51° ENE 22:54:38 10° N
Landsat 7 3.7 22:52:27 60° SSE 22:53:17 82° ENE 22:58:04 10° N
SPOT 1/Viking Rocket 3.7 22:51:40 42° S 22:53:21 67° WSW 22:58:30 10° NNW
Cosmos 1452 Rocket 3.4 22:48:40 10° NNW 22:53:57 80° ENE 22:55:04 56° SE
Cosmos 1980 Rocket 3.1 22:49:48 10° N 22:55:01 36° ENE 22:56:23 32° E
Cosmos 2058 Rocket 3.7 22:51:27 10° NNW 22:55:44 51° W 22:56:51 40° SW
Meteor 1-21 4.4 22:56:53 47° ESE 22:57:35 50° E 23:03:07 10° NNE
Cosmos 1766 4.1 22:56:29 10° N 22:59:35 40° NE 22:59:35 40° NE
ARGOS 4.1 22:58:32 26° SSW 23:00:57 41° W 23:06:03 10° NNW
Tiangong 2 2.6 22:58:17 10° WNW 23:00:58 35° NNW 23:00:58 35° NNW
Nadezhda 3 Rocket 4.5 23:02:08 40° ESE 23:03:02 42° E 23:08:59 10° NNE
Cosmos 2322 Rocket 4.2 23:01:25 10° NNE 23:05:07 17° NE 23:07:11 15° ENE
Lacrosse 5 rocket 4.4 23:03:42 10° N 23:05:29 12° NNE 23:07:15 10° NE
USA 267 3.9 23:00:55 10° ENE 23:05:41 34° ESE 23:05:41 34° ESE
Terra 1.6 23:07:56 74° SE 23:08:19 81° ENE 23:13:05 10° N
SPOT 5 4.2 23:09:28 23° WSW 23:10:39 26° W 23:14:18 10° NW
H-2A R/B 2.0 23:15:12 87° SW 23:15:14 88° WSW 23:19:48 10° NNW
IGS 5A 3.6 23:18:14 73° NW 23:18:14 73° NW 23:22:04 10° NNW
Cosmos 1812 Rocket 3.6 23:14:20 10° N 23:18:32 75° NNE 23:18:32 75° NNE
Cosmos 864 Rocket 4.5 23:12:43 10° N 23:19:01 78° W 23:20:40 51° SSW
Cosmos 1626 Rocket 4.3 23:26:20 44° W 23:26:41 45° W 23:30:51 10° N
Lacrosse 5 4.2 23:30:34 12° ENE 23:30:34 12° ENE 23:30:57 10° ENE
Spot 4 3.9 23:26:54 64° ENE 23:26:54 64° ENE 23:31:33 10° N
Meteor 2-21 Rocket 4.4 23:21:21 10° N 23:27:24 76° W 23:28:37 58° SSW
Cosmos 2082 Rocket 3.3 23:23:35 13° SW 23:28:22 41° WNW 23:33:42 10° N
ATLAS CENTAUR R/B 3.8 23:29:01 10° NNE 23:30:37 12° NE 23:30:40 12° NE
CZ-2C R/B 4.3 23:27:05 10° NE 23:30:19 21° ENE 23:30:19 21° ENE
Cosmos 1805 4.4 23:28:14 10° N 23:30:53 38° NNE 23:30:53 38° NNE
SL-19 R/B 4.3 23:26:54 10° N 23:32:10 66° WNW 23:33:15 52° SW
Meteor 1-22 Rocket 4.4 23:28:46 10° NNW 23:33:59 58° W 23:34:39 53° SW
USA 229 DEB 3.8 23:30:05 10° NNW 23:37:16 73° NE 23:39:05 52° ESE
USA 229 3.8 23:30:12 10° NNW 23:37:22 72° NE 23:39:12 52° ESE
Cosmos 1825 Rocket 4.3 23:41:26 47° NNE 23:41:26 47° NNE 23:44:37 10° NNE
H-2A R/B 3.5 23:40:27 23° WSW 23:41:24 25° W 23:45:29 10° NW
Cosmos 158 Rocket 4.5 23:46:05 50° WSW 23:47:00 57° WNW 23:52:18 10° N
Cosmos 1697 Rocket 3.3 23:45:26 10° NW 23:50:43 44° WSW 23:50:56 44° WSW
Cosmos 2360 4.1 23:45:58 10° NNW 23:51:43 88° ENE 23:51:48 87° SE
